Weather History for Winchester, TN

Change the Weather History Date:

Wednesday, April 24, 2013

  Actual Average (KTHA) Record (KTHA)
Temperature  
Mean Temperature 55 °F -  
Max Temperature 66 °F 73 °F 78 °F (2014)
Min Temperature 44 °F 48 °F 39 °F (2014)
Degree Days  
Heating Degree Days 10    
Growing Degree Days 5 (Base 50)    
Moisture  
Dew Point 51 °F    
Average Humidity 81    
Maximum Humidity 100    
Minimum Humidity 64    
Precipitation  
Precipitation 0.00 in - - ()
Sea Level Pressure  
Sea Level Pressure 30.09 in    
Wind  
Wind Speed 8 mph (SW)    
Max Wind Speed 17 mph    
Max Gust Speed -    
Visibility 8 miles    
Events      
Averages and records for this station are not official NWS values.
T = Trace of Precipitation, MM = Missing Value Source: NWS Daily Summary

Daily Weather History Graph

Daily Weather History Graph

Search for Another Location

Airport:

Trip Planner

Search our weather history database for the weather conditions in past years. The results will help you decide how hot, cold, wet, or windy it might be!

Date:

Astronomy

Apr. 24, 2013 Rise Set
Actual Time 7:00 AM EDT 8:24 PM EDT
Civil Twilight 6:34 AM EDT 8:51 PM EDT
Nautical Twilight 6:02 AM EDT 9:23 PM EDT
Astronomical Twilight 5:28 AM EDT 9:56 PM EDT
Moon 7:28 PM EDT 6:01 AM EDT
Length of Visible Light 14h 17m
Length of Day
13h 23m
Waxing Gibbous, 98% of the Moon is Illuminated
Apr 24
Waxing Gibbous
Apr 25
Full
May 2
Last Quarter
May 9
New
May 18
First Quarter

Hourly Weather History & Observations

Time (EDT) Temp. Windchill Dew Point Humidity Pressure Visibility Wind Dir Wind Speed Gust Speed Precip Events Conditions
12:15 AM 57.2 °F - 50.0 °F 77% 30.08 in 10.0 mi SSE 3.5 mph - N/A   Clear
12:35 AM 57.2 °F - 50.0 °F 77% 30.08 in 10.0 mi SSE 3.5 mph - N/A   Mostly Cloudy
12:55 AM 59.0 °F - 50.0 °F 72% 30.07 in 10.0 mi Calm Calm - N/A   Overcast
1:35 AM 62.6 °F - 51.8 °F 68% 30.05 in 10.0 mi SSE 9.2 mph - N/A   Overcast
2:15 AM 64.4 °F - 51.8 °F 64% 30.03 in 10.0 mi South 10.4 mph - N/A   Overcast
2:35 AM 64.4 °F - 51.8 °F 64% 30.02 in 10.0 mi South 11.5 mph - N/A   Mostly Cloudy
2:55 AM 64.4 °F - 51.8 °F 64% 30.01 in 10.0 mi SSE 13.8 mph - N/A   Scattered Clouds
3:15 AM 64.4 °F - 51.8 °F 64% 29.99 in 10.0 mi SSE 13.8 mph - N/A   Clear
3:35 AM 64.4 °F - 51.8 °F 64% 29.99 in 10.0 mi South 15.0 mph - N/A   Clear
3:55 AM 62.6 °F - 51.8 °F 68% 29.99 in 10.0 mi South 11.5 mph - N/A   Clear
4:15 AM 62.6 °F - 51.8 °F 68% 29.99 in 10.0 mi South 10.4 mph - N/A   Clear
4:35 AM 62.6 °F - 51.8 °F 68% 30.00 in 10.0 mi South 9.2 mph - N/A   Clear
4:55 AM 62.6 °F - 53.6 °F 72% 29.99 in 10.0 mi South 9.2 mph - N/A   Clear
5:15 AM 62.6 °F - 53.6 °F 72% 30.00 in 10.0 mi SSW 9.2 mph - N/A   Clear
5:35 AM 62.6 °F - 53.6 °F 72% 30.01 in 10.0 mi SSW 4.6 mph - N/A   Clear
6:15 AM 64.4 °F - 53.6 °F 68% 30.00 in 10.0 mi South 9.2 mph - N/A   Mostly Cloudy
6:35 AM 62.6 °F - 53.6 °F 72% 29.99 in 10.0 mi South 5.8 mph - N/A   Scattered Clouds
6:55 AM 62.6 °F - 53.6 °F 72% 30.00 in 10.0 mi SSW 8.1 mph - N/A   Mostly Cloudy
7:15 AM 62.6 °F - 53.6 °F 72% 30.00 in 10.0 mi South 9.2 mph - N/A   Overcast
7:35 AM 62.6 °F - 53.6 °F 72% 30.00 in 10.0 mi SSW 10.4 mph - N/A   Mostly Cloudy
7:55 AM 62.6 °F - 55.4 °F 77% 29.99 in 10.0 mi South 8.1 mph - N/A   Partly Cloudy
8:15 AM 64.4 °F - 55.4 °F 73% 30.00 in 10.0 mi SSW 5.8 mph - N/A   Mostly Cloudy
8:35 AM 64.4 °F - 55.4 °F 73% 30.00 in 10.0 mi South 8.1 mph - N/A   Mostly Cloudy
8:55 AM 64.4 °F - 55.4 °F 73% 29.99 in 10.0 mi South 11.5 mph - N/A   Mostly Cloudy
9:15 AM 66.2 °F - 55.4 °F 68% 29.99 in 10.0 mi SSW 11.5 mph - N/A   Mostly Cloudy
9:35 AM 66.2 °F - 55.4 °F 68% 29.99 in 10.0 mi South 13.8 mph - N/A   Mostly Cloudy
9:55 AM 66.2 °F - 55.4 °F 68% 29.98 in 10.0 mi South 17.3 mph - N/A   Partly Cloudy
10:15 AM 66.2 °F - 55.4 °F 68% 30.04 in 10.0 mi WSW 11.5 mph - N/A   Scattered Clouds
10:35 AM 66.2 °F - 55.4 °F 68% 30.02 in 10.0 mi SSW 10.4 mph - N/A   Mostly Cloudy
10:55 AM 64.4 °F - 57.2 °F 77% 30.03 in 10.0 mi SSW 12.7 mph - N/A   Mostly Cloudy
11:15 AM 64.4 °F - 57.2 °F 77% 30.04 in 7.0 mi SSW 11.5 mph - N/A   Mostly Cloudy
11:35 AM 60.8 °F - 57.2 °F 88% 30.07 in 3.0 mi WSW 8.1 mph - N/A   Mostly Cloudy
11:55 AM 60.8 °F - 57.2 °F 88% 30.09 in 6.0 mi West 9.2 mph - N/A   Overcast
12:15 PM 60.8 °F - 59.0 °F 94% 30.10 in 10.0 mi WSW 8.1 mph - N/A   Overcast
12:35 PM 60.8 °F - 59.0 °F 94% 30.10 in 3.0 mi SW 4.6 mph - N/A   Mostly Cloudy
12:55 PM 60.8 °F - 59.0 °F 94% 30.09 in 2.5 mi SSW 8.1 mph - N/A   Mostly Cloudy
1:15 PM 60.8 °F - 59.0 °F 94% 30.06 in 10.0 mi South 5.8 mph - N/A   Mostly Cloudy
1:35 PM 62.6 °F - 60.8 °F 94% 30.07 in 10.0 mi SSW 4.6 mph - N/A   Scattered Clouds
1:55 PM 62.6 °F - 57.2 °F 82% 30.07 in 10.0 mi WSW 8.1 mph - N/A   Mostly Cloudy
2:15 PM 51.8 °F - 50.0 °F 94% 30.11 in 10.0 mi NW 10.4 mph - N/A   Overcast
2:35 PM 48.2 °F - 48.2 °F 100% 30.13 in 1.2 mi NW 13.8 mph - N/A   Overcast
2:55 PM 48.2 °F - 46.4 °F 93% 30.14 in 2.0 mi NNW 6.9 mph - N/A   Overcast
3:15 PM 48.2 °F - 46.4 °F 93% 30.13 in 3.0 mi North 4.6 mph - N/A   Overcast
3:35 PM 48.2 °F - 46.4 °F 93% 30.14 in 2.0 mi WNW 3.5 mph - N/A   Overcast
3:55 PM 48.2 °F - 46.4 °F 93% 30.13 in 1.8 mi Calm Calm - N/A   Overcast
4:15 PM 48.2 °F - 48.2 °F 100% 30.14 in 2.5 mi NW 4.6 mph - N/A   Overcast
4:35 PM 48.2 °F - 48.2 °F 100% 30.15 in 3.0 mi NW 6.9 mph - N/A   Overcast
4:55 PM 48.2 °F - 48.2 °F 100% 30.15 in 2.5 mi NW 5.8 mph - N/A   Overcast
5:15 PM 48.2 °F - 48.2 °F 100% 30.15 in 3.0 mi NW 8.1 mph - N/A   Overcast
5:35 PM 48.2 °F - 46.4 °F 93% 30.16 in 10.0 mi NNW 6.9 mph - N/A   Overcast
5:55 PM 48.2 °F - 46.4 °F 93% 30.17 in 10.0 mi NNW 4.6 mph - N/A   Overcast
6:15 PM 48.2 °F - 46.4 °F 93% 30.17 in 10.0 mi NNW 6.9 mph - N/A   Overcast
6:35 PM 48.2 °F - 46.4 °F 93% 30.17 in 10.0 mi North 9.2 mph - N/A   Overcast
6:55 PM 48.2 °F - 44.6 °F 87% 30.18 in 10.0 mi NNW 6.9 mph - N/A   Overcast
7:15 PM 48.2 °F - 44.6 °F 87% 30.19 in 10.0 mi NNW 9.2 mph - N/A   Overcast
7:35 PM 46.4 °F 42.4 °F 42.8 °F 87% 30.20 in 10.0 mi North 8.1 mph - N/A   Overcast
8:15 PM 46.4 °F 42.9 °F 44.6 °F 93% 30.20 in 10.0 mi North 6.9 mph - N/A   Overcast
8:35 PM 46.4 °F 41.5 °F 42.8 °F 87% 30.21 in 10.0 mi North 10.4 mph - N/A   Overcast
8:55 PM 46.4 °F 42.9 °F 42.8 °F 87% 30.22 in 10.0 mi North 6.9 mph - N/A   Overcast
9:15 PM 46.4 °F 41.9 °F 42.8 °F 87% 30.23 in 10.0 mi North 9.2 mph - N/A   Overcast
9:35 PM 46.4 °F 43.5 °F 39.2 °F 76% 30.23 in 10.0 mi NNW 5.8 mph - N/A   Overcast
9:55 PM 46.4 °F 42.4 °F 41.0 °F 81% 30.24 in 10.0 mi NE 8.1 mph - N/A   Overcast
11:15 PM 44.6 °F 40.2 °F 37.4 °F 76% 30.26 in 10.0 mi North 8.1 mph - N/A   Overcast
11:35 PM 44.6 °F 40.2 °F 37.4 °F 76% 30.26 in 10.0 mi North 8.1 mph - N/A   Overcast
11:55 PM 44.6 °F 42.2 °F 37.4 °F 76% 30.26 in 10.0 mi North 4.6 mph - N/A   Overcast